FW1042 Weather Reports


Display with metric or nautical units.
time (UTC)temp
F
wind
direction
speed
MPH
gust
MPH
rain 1hr
in
rain 24hr
in
rain mn
in
humidity
%
barometer
mb
20260903013915 92 17 3.0 10.0 0.00 0.00 0.00 51 1012.2
20260903013414 92 209 3.0 9.0 0.00 0.00 0.00 51 1012.0
20260903012914 92 217 3.0 10.0 0.00 0.00 0.00 50 1012.0
20260903012754 92 142 2.0 8.0 0.00 0.00 0.00 51 1011.8
20260903012749 92 108 3.0 10.0 0.00 0.00 0.00 51 1011.8
20260903011411 92 90 2.0 9.0 0.00 0.00 0.00 50 1011.8
20260903010910 93 33 3.0 10.0 0.00 0.00 0.00 50 1011.7
20260903010408 93 178 4.0 10.0 0.00 0.00 0.00 50 1011.6
20260903005908 93 29 3.0 9.0 0.00 0.00 0.00 49 1011.6
20260903005408 94 90 3.0 8.0 0.00 0.00 0.00 49 1011.5
20260903004904 94 170 3.0 10.0 0.00 0.00 0.00 49 1011.5
20260903004406 94 136 3.0 10.0 0.00 0.00 0.00 48 1011.6
20260903003905 94 190 3.0 7.0 0.00 0.00 0.00 47 1011.6
20260903003406 94 124 3.0 10.0 0.00 0.00 0.00 48 1011.5
20260903003202 95 165 3.0 10.0 0.00 0.00 0.00 48 1011.6
20260903002402 95 168 3.0 10.0 0.00 0.00 0.00 48 1011.6
20260903001904 95 182 3.0 8.0 0.00 0.00 0.00 48 1011.5
20260903001402 96 173 3.0 10.0 0.00 0.00 0.00 47 1011.4
20260903000902 96 144 3.0 10.0 0.00 0.00 0.00 46 1011.4
20260903000402 97 202 3.0 10.0 0.00 0.00 0.00 45 1011.3
20260902235903 98 63 3.0 11.0 0.00 0.00 0.00 44 1011.4
20260902235654 98 117 2.0 11.0 0.00 0.00 0.00 43 1011.3
20260902234902 98 124 3.0 9.0 0.00 0.00 0.00 42 1011.3
20260902234403 98 286 3.0 10.0 0.00 0.00 0.00 41 1011.2
20260902233902 98 92 2.0 10.0 0.00 0.00 0.00 42 1011.2
20260902233402 98 63 3.0 6.0 0.00 0.00 0.00 42 1011.1
20260902232902 98 315 3.0 7.0 0.00 0.00 0.00 41 1011.1
20260902232403 99 316 3.0 10.0 0.00 0.00 0.00 41 1011.2
20260902231902 99 173 3.0 10.0 0.00 0.00 0.00 40 1011.2
20260902231356 99 54 3.0 10.0 0.00 0.00 0.00 40 1011.1
20260902230856 99 169 2.0 10.0 0.00 0.00 0.00 40 1011.1
20260902230355 99 74 2.0 7.0 0.00 0.00 0.00 41 1011.3
20260902230205 100 305 2.0 8.0 0.00 0.00 0.00 40 1011.1
20260902225355 100 86 3.0 8.0 0.00 0.00 0.00 40 1011.2
20260902224854 101 138 2.0 6.0 0.00 0.00 0.00 38 1011.1
20260902224354 101 5 2.0 7.0 0.00 0.00 0.00 39 1011.0
20260902223853 101 265 2.0 7.0 0.00 0.00 0.00 38 1011.2
20260902223354 101 145 2.0 7.0 0.00 0.00 0.00 40 1011.1
20260902222854 100 324 3.0 7.0 0.00 0.00 0.00 39 1011.1
20260902222354 100 152 3.0 10.0 0.00 0.00 0.00 39 1011.3
20260902221854 100 150 2.0 10.0 0.00 0.00 0.00 39 1011.3
20260902221358 100 330 2.0 8.0 0.00 0.00 0.00 39 1011.3
20260902220855 100 334 2.0 8.0 0.00 0.00 0.00 40 1011.4
20260902220356 100 136 2.0 6.0 0.00 0.00 0.00 39 1011.3
20260902215855 100 19 3.0 7.0 0.00 0.00 0.00 39 1011.4
20260902215355 100 84 3.0 9.0 0.00 0.00 0.00 39 1011.6
20260902214853 100 121 3.0 9.0 0.00 0.00 0.00 40 1011.6
20260902214353 100 24 3.0 9.0 0.00 0.00 0.00 41 1011.6
20260902213856 100 152 3.0 9.0 0.00 0.00 0.00 42 1011.7
20260902213352 99 292 2.0 9.0 0.00 0.00 0.00 42 1011.7
20260902212852 99 38 2.0 9.0 0.00 0.00 0.00 42 1011.8
20260902212353 100 15 2.0 8.0 0.00 0.00 0.00 39 1011.9
20260902211852 100 156 2.0 8.0 0.00 0.00 0.00 39 1012.0
20260902211352 101 32 2.0 8.0 0.00 0.00 0.00 40 1011.8
20260902210850 100 46 2.0 6.0 0.00 0.00 0.00 42 1012.0
20260902210354 100 319 2.0 6.0 0.00 0.00 0.00 40 1012.1
20260902205851 100 229 2.0 7.0 0.00 0.00 0.00 41 1012.2
20260902205351 100 338 2.0 7.0 0.00 0.00 0.00 41 1012.2
20260902205142 99 355 2.0 9.0 0.00 0.00 0.00 43 1012.3
20260902204348 99 26 3.0 9.0 0.00 0.00 0.00 41 1012.3
20260902203849 98 350 2.0 8.0 0.00 0.00 0.00 43 1012.3
20260902203347 98 304 2.0 6.0 0.00 0.00 0.00 44 1012.4
20260902203142 98 27 3.0 9.0 0.00 0.00 0.00 44 1012.5
20260902202347 98 342 3.0 11.0 0.00 0.00 0.00 43 1012.6
20260902201848 98 314 3.0 11.0 0.00 0.00 0.00 44 1012.8
20260902201348 98 290 2.0 9.0 0.00 0.00 0.00 43 1013.0
20260902200848 98 339 2.0 8.0 0.00 0.00 0.00 42 1013.0
20260902200348 98 92 2.0 7.0 0.00 0.00 0.00 41 1013.1
20260902195846 98 195 2.0 7.0 0.00 0.00 0.00 44 1013.1
20260902195632 98 333 2.0 7.0 0.00 0.00 0.00 43 1013.2
20260902195140 98 5 2.0 7.0 0.00 0.00 0.00 43 1013.4
20260902194345 98 161 2.0 7.0 0.00 0.00 0.00 44 1013.4
20260902194235 96 338 3.0 9.0 0.00 0.00 0.00 46 1013.5
20260902194230 96 205 2.0 7.0 0.00 0.00 0.00 48 1013.5
20260902192843 97 295 3.0 9.0 0.00 0.00 0.00 47 1013.6
20260902192342 97 82 3.0 7.0 0.00 0.00 0.00 46 1013.7
20260902191842 97 346 2.0 8.0 0.00 0.00 0.00 44 1013.9
20260902191342 97 131 1.0 8.0 0.00 0.00 0.00 47 1013.8
20260902190842 96 257 1.0 4.0 0.00 0.00 0.00 47 1014.0
20260902190342 95 15 2.0 5.0 0.00 0.00 0.00 48 1014.1
20260902185842 96 313 2.0 7.0 0.00 0.00 0.00 45 1014.1
20260902185342 96 344 2.0 7.0 0.00 0.00 0.00 46 1014.2
20260902184937 96 29 2.0 6.0 0.00 0.00 0.00 47 1014.4
20260902184916 96 355 2.0 6.0 0.00 0.00 0.00 45 1014.3
20260902183842 95 289 2.0 6.0 0.00 0.00 0.00 49 1014.5
20260902183342 95 141 3.0 7.0 0.00 0.00 0.00 47 1014.5
20260902182842 95 320 2.0 7.0 0.00 0.00 0.00 47 1014.6
20260902182635 95 157 2.0 7.0 0.00 0.00 0.00 50 1014.6
20260902182131 95 275 2.0 7.0 0.00 0.00 0.00 48 1014.7
20260902181344 95 105 2.0 6.0 0.00 0.00 0.00 50 1014.8
20260902180841 95 300 2.0 6.0 0.00 0.00 0.00 51 1014.9
20260902180326 95 5 2.0 5.0 0.00 0.00 0.00 50 1015.0
20260902175827 95 332 2.0 5.0 0.00 0.00 0.00 48 1015.0
20260902175325 95 202 2.0 8.0 0.00 0.00 0.00 49 1015.2
20260902174825 95 104 2.0 8.0 0.00 0.00 0.00 50 1015.2
20260902174325 95 269 2.0 5.0 0.00 0.00 0.00 51 1015.3
20260902173826 95 186 2.0 6.0 0.00 0.00 0.00 52 1015.3
20260902173624 95 32 2.0 6.0 0.00 0.00 0.00 50 1015.4
20260902172826 94 146 1.0 5.0 0.00 0.00 0.00 53 1015.3
20260902172326 93 192 2.0 8.0 0.00 0.00 0.00 53 1015.5
20260902171825 94 153 3.0 8.0 0.00 0.00 0.00 53 1015.7
20260902171625 93 142 2.0 7.0 0.00 0.00 0.00 53 1015.7
20260902170826 93 64 2.0 7.0 0.00 0.00 0.00 55 1015.8
20260902170325 92 182 2.0 7.0 0.00 0.00 0.00 54 1015.9
20260902165826 92 104 1.0 5.0 0.00 0.00 0.00 56 1015.9
20260902165616 93 50 2.0 9.0 0.00 0.00 0.00 55 1016.3
20260902164826 92 144 3.0 9.0 0.00 0.00 0.00 55 1016.2
20260902164326 93 355 2.0 6.0 0.00 0.00 0.00 54 1016.3
20260902164207 93 182 2.0 6.0 0.00 0.00 0.00 57 1016.3
20260902164202 93 43 2.0 6.0 0.00 0.00 0.00 55 1016.3
20260902162824 92 271 2.0 6.0 0.00 0.00 0.00 57 1016.3
20260902162323 92 165 2.0 8.0 0.00 0.00 0.00 56 1016.5
20260902161824 92 125 2.0 8.0 0.00 0.00 0.00 57 1016.6
20260902161324 92 55 2.0 8.0 0.00 0.00 0.00 56 1016.6
20260902160822 92 289 2.0 8.0 0.00 0.00 0.00 57 1016.6
20260902160315 92 166 1.0 6.0 0.00 0.00 0.00 58 1016.5
20260902155816 91 150 1.0 4.0 0.00 0.00 0.00 58 1016.6
20260902155316 91 347 2.0 7.0 0.00 0.00 0.00 58 1016.6
20260902154814 91 123 2.0 7.0 0.00 0.00 0.00 59 1016.7
20260902154316 91 344 2.0 5.0 0.00 0.00 0.00 59 1016.5
20260902154106 90 93 2.0 4.0 0.00 0.00 0.00 59 1016.6
20260902153312 90 170 1.0 4.0 0.00 0.00 0.00 60 1016.5
20260902152811 90 176 1.0 4.0 0.00 0.00 0.00 60 1016.4
20260902152311 90 123 1.0 3.0 0.00 0.00 0.00 60 1016.3
20260902151812 89 194 1.0 4.0 0.00 0.00 0.00 61 1016.4
20260902151312 89 180 1.0 4.0 0.00 0.00 0.00 61 1016.3
20260902150811 89 211 1.0 3.0 0.00 0.00 0.00 62 1016.3
20260902150606 88 58 1.0 3.0 0.00 0.00 0.00 62 1016.3
20260902145805 88 171 1.0 3.0 0.00 0.00 0.00 63 1016.3
20260902145306 87 37 1.0 3.0 0.00 0.00 0.00 64 1016.2
20260902144801 87 276 1.0 3.0 0.00 0.00 0.00 64 1016.3
20260902144259 87 15 1.0 4.0 0.00 0.00 0.00 65 1016.3
20260902143757 87 146 2.0 6.0 0.00 0.00 0.00 66 1016.0
20260902143258 86 271 2.0 6.0 0.00 0.00 0.00 66 1016.3
20260902143052 86 237 1.0 6.0 0.00 0.00 0.00 67 1016.2
20260902142548 86 149 1.0 4.0 0.00 0.00 0.00 68 1016.2
20260902141759 85 26 1.0 3.0 0.00 0.00 0.00 68 1016.2
20260902141300 85 75 1.0 5.0 0.00 0.00 0.00 69 1016.3
20260902140758 85 108 2.0 5.0 0.00 0.00 0.00 69 1016.0
20260902140554 85 144 2.0 5.0 0.00 0.00 0.00 70 1016.0
20260902140058 84 121 1.0 4.0 0.00 0.00 0.00 71 1016.0
20260902135254 84 255 1.0 4.0 0.00 0.00 0.00 72 1016.2
20260902134752 83 146 1.0 5.0 0.00 0.00 0.00 73 1016.2
20260902134546 83 138 2.0 8.0 0.00 0.00 0.00 74 1016.2
20260902133749 82 85 2.0 8.0 0.00 0.00 0.00 75 1016.0
20260902133249 81 144 1.0 7.0 0.00 0.00 0.00 76 1016.0
20260902132748 81 81 1.0 5.0 0.00 0.00 0.00 77 1016.3
20260902132248 80 171 1.0 4.0 0.00 0.00 0.00 77 1016.2
20260902131745 80 48 0.0 3.0 0.00 0.00 0.00 78 1016.0
20260902131247 80 110 0.0 3.0 0.00 0.00 0.00 78 1015.8
20260902130747 80 141 0.0 2.0 0.00 0.00 0.00 78 1015.8
20260902130245 79 167 0.0 1.0 0.00 0.00 0.00 79 1015.9
20260902125750 79 95 0.0 1.0 0.00 0.00 0.00 79 1015.8
20260902125245 79 122 0.0 1.0 0.00 0.00 0.00 79 1015.7
20260902124745 79 128 0.0 3.0 0.00 0.00 0.00 79 1015.7
20260902124245 78 108 0.0 3.0 0.00 0.00 0.00 79 1015.7
20260902123745 78 132 0.0 1.0 0.00 0.00 0.00 79 1015.7
20260902123245 78 117 0.0 1.0 0.00 0.00 0.00 79 1015.6
20260902123040 78 117 0.0 0.0 0.00 0.00 0.00 79 1015.6
20260902122244 78 118 0.0 1.0 0.00 0.00 0.00 79 1015.5
20260902121743 78 119 0.0 3.0 0.00 0.00 0.00 80 1015.4
20260902121244 78 119 0.0 3.0 0.00 0.00 0.00 80 1015.4
20260902120744 78 146 0.0 3.0 0.00 0.00 0.00 81 1015.3
20260902120242 78 126 0.0 1.0 0.00 0.00 0.00 81 1015.4
20260902115739 78 180 0.0 0.0 0.00 0.00 0.00 81 1015.4
20260902115238 78 180 0.0 0.0 0.00 0.00 0.00 80 1015.4
20260902114737 78 180 0.0 0.0 0.00 0.00 0.00 80 1015.4
20260902114231 78 180 0.0 0.0 0.00 0.00 0.00 80 1015.2
20260902113755 78 180 0.0 0.0 0.00 0.00 0.00 80 1015.2
20260902113519 78 180 0.0 0.0 0.00 0.00 0.00 80 1015.4
20260902112721 78 180 0.0 1.0 0.00 0.00 0.00 80 1015.4
20260902112219 78 180 0.0 1.0 0.00 0.00 0.00 80 1015.4
20260902111723 78 180 0.0 3.0 0.00 0.00 0.00 80 1015.4
20260902111217 78 180 0.0 3.0 0.00 0.00 0.00 81 1015.3
20260902111015 78 125 0.0 3.0 0.00 0.00 0.00 81 1015.3
20260902110214 78 107 1.0 3.0 0.00 0.00 0.00 81 1015.4
20260902105714 78 142 1.0 3.0 0.00 0.00 0.00 82 1015.5
20260902105214 78 142 0.0 3.0 0.00 0.00 0.00 83 1015.5
20260902104713 78 148 0.0 2.0 0.00 0.00 0.00 83 1015.5
20260902104213 78 166 1.0 5.0 0.00 0.00 0.00 81 1015.3
20260902103711 78 179 1.0 5.0 0.00 0.00 0.00 80 1015.4
20260902103211 78 142 1.0 4.0 0.00 0.00 0.00 80 1015.3
20260902102711 78 159 1.0 4.0 0.00 0.00 0.00 80 1015.3
20260902102459 78 148 1.0 4.0 0.00 0.00 0.00 79 1015.3
20260902101705 79 121 1.0 4.0 0.00 0.00 0.00 79 1015.5
20260902101207 80 128 0.0 4.0 0.00 0.00 0.00 79 1015.4
20260902100705 81 166 0.0 1.0 0.00 0.00 0.00 80 1015.3
20260902100205 82 174 0.0 1.0 0.00 0.00 0.00 77 1015.3
20260902095705 81 145 0.0 1.0 0.00 0.00 0.00 72 1015.4
20260902095207 81 148 0.0 2.0 0.00 0.00 0.00 70 1015.3
20260902094705 81 146 0.0 2.0 0.00 0.00 0.00 70 1015.2
20260902094204 82 167 0.0 1.0 0.00 0.00 0.00 69 1015.3
20260902093703 82 164 0.0 1.0 0.00 0.00 0.00 69 1015.2
20260902093204 82 192 0.0 1.0 0.00 0.00 0.00 69 1015.2
20260902092703 82 126 0.0 1.0 0.00 0.00 0.00 69 1015.2
20260902092203 82 140 0.0 0.0 0.00 0.00 0.00 69 1015.2
20260902091703 82 166 0.0 2.0 0.00 0.00 0.00 69 1015.2
20260902091204 82 150 0.0 2.0 0.00 0.00 0.00 68 1015.2
20260902090701 82 159 0.0 2.0 0.00 0.00 0.00 68 1015.3
20260902090202 82 171 0.0 2.0 0.00 0.00 0.00 67 1015.3
20260902085952 83 176 0.0 3.0 0.00 0.00 0.00 67 1015.2
20260902085203 83 153 1.0 3.0 0.00 0.00 0.00 67 1015.3
20260902084702 83 138 0.0 3.0 0.00 0.00 0.00 67 1015.2
20260902084201 83 151 0.0 2.0 0.00 0.00 0.00 66 1015.2
20260902083701 83 183 1.0 3.0 0.00 0.00 0.00 66 1015.2
20260902083200 83 172 0.0 3.0 0.00 0.00 0.00 66 1015.3
20260902082659 83 188 0.0 2.0 0.00 0.00 0.00 65 1015.2
20260902082200 83 189 0.0 2.0 0.00 0.00 0.00 65 1015.2
20260902081659 84 137 1.0 3.0 0.00 0.00 0.00 65 1015.2
20260902081158 84 137 1.0 4.0 0.00 0.00 0.00 65 1015.2
20260902080657 84 152 1.0 5.0 0.00 0.00 0.00 64 1015.3
20260902080155 84 166 2.0 5.0 0.00 0.00 0.00 64 1015.2
20260902075947 84 167 2.0 5.0 0.00 0.00 0.00 64 1015.2
20260902075155 84 193 2.0 4.0 0.00 0.00 0.00 64 1015.3
20260902074727 84 151 2.0 7.0 0.00 0.00 0.00 64 1015.3
20260902073651 84 221 2.0 6.0 0.00 0.00 0.00 65 1015.2
20260902073447 85 178 2.0 7.0 0.00 0.00 0.00 65 1015.2
20260902072651 85 151 3.0 11.0 0.00 0.00 0.00 64 1015.2
20260902072151 85 221 3.0 11.0 0.00 0.00 0.00 65 1015.4
20260902071649 85 175 3.0 7.0 0.00 0.00 0.00 65 1015.4
20260902071151 85 170 2.0 7.0 0.00 0.00 0.00 65 1015.4
20260902070647 85 135 3.0 7.0 0.00 0.00 0.00 65 1015.4
20260902070145 85 170 3.0 6.0 0.00 0.00 0.00 64 1015.5
20260902065645 85 136 3.0 8.0 0.00 0.00 0.00 64 1015.3
20260902065145 85 138 3.0 8.0 0.00 0.00 0.00 64 1015.4
20260902064647 85 205 2.0 8.0 0.00 0.00 0.00 64 1015.3
20260902064145 86 234 3.0 8.0 0.00 0.00 0.00 63 1015.3
20260902063645 86 150 3.0 8.0 0.00 0.00 0.00 63 1015.1
20260902063146 86 167 4.0 9.0 0.00 0.00 0.00 63 1015.1
20260902062645 86 193 5.0 9.0 0.00 0.00 0.00 62 1014.9
20260902062443 86 82 4.0 10.0 0.00 0.00 0.00 62 1014.9
20260902061645 86 150 3.0 10.0 0.00 0.00 0.00 62 1014.9
20260902061145 87 145 4.0 8.0 0.00 0.00 0.00 62 1015.0
20260902060643 87 174 4.0 9.0 0.00 0.00 0.00 62 1014.8
20260902060143 87 169 4.0 11.0 0.00 0.00 0.00 62 1014.9
20260902055643 87 148 4.0 11.0 0.00 0.00 0.00 62 1014.8
20260902055143 87 162 4.0 9.0 0.00 0.00 0.00 62 1014.8
20260902054643 87 169 4.0 9.0 0.00 0.00 0.00 62 1014.9
20260902054142 87 167 3.0 8.0 0.00 0.00 0.00 61 1014.7
20260902053640 87 198 3.0 8.0 0.00 0.00 0.00 61 1014.9
20260902053141 88 159 3.0 8.0 0.00 0.00 0.00 60 1014.7
20260902052940 88 148 3.0 8.0 0.00 0.00 0.00 60 1014.8
20260902052142 88 210 4.0 9.0 0.00 0.00 0.00 59 1014.7
20260902051641 88 184 4.0 9.0 0.00 0.00 0.00 58 1014.8
20260902051141 89 156 4.0 9.0 0.00 0.00 0.00 58 1014.7
20260902050641 89 136 4.0 8.0 0.00 0.00 0.00 57 1014.8
20260902050141 89 204 5.0 11.0 0.00 0.00 0.00 56 1014.8
20260902045640 89 177 5.0 11.0 0.00 0.00 0.00 55 1014.8
20260902045140 90 115 5.0 12.0 0.00 0.00 0.00 55 1014.8
20260902044640 90 186 4.0 12.0 0.00 0.00 0.00 54 1014.8
20260902044138 90 177 3.0 7.0 0.00 0.00 0.00 54 1014.7
20260902043637 90 157 2.0 7.0 0.00 0.00 0.00 54 1014.7
20260902043137 90 170 2.0 7.0 0.00 0.00 0.00 54 1014.6
20260902042634 90 113 1.0 7.0 0.00 0.00 0.00 54 1014.6
20260902042135 90 93 0.0 2.0 0.00 0.00 0.00 54 1014.5
20260902041632 90 103 0.0 1.0 0.00 0.00 0.00 53 1014.5
20260902041130 90 125 0.0 2.0 0.00 0.00 0.00 53 1014.4
20260902040632 91 107 0.0 2.0 0.00 0.00 0.00 52 1014.3
20260902040411 91 112 1.0 2.0 0.00 0.00 0.00 52 1014.4
20260902035920 91 126 1.0 3.0 0.00 0.00 0.00 52 1014.5
20260902035522 91 153 1.0 4.0 0.00 0.00 0.00 52 1014.5
20260902034624 91 183 1.0 4.0 0.00 0.00 0.00 51 1014.4
20260902034124 91 113 2.0 6.0 0.00 0.00 0.00 51 1014.4
20260902033624 91 177 2.0 6.0 0.00 0.00 0.00 51 1014.5
20260902033124 91 161 1.0 6.0 0.00 0.00 0.00 51 1014.4
20260902032627 91 119 1.0 6.0 0.00 0.00 0.00 51 1014.4
20260902032124 91 161 1.0 6.0 0.00 0.00 0.00 50 1014.4
20260902031624 92 133 1.0 6.0 0.00 0.00 0.00 50 1014.3
20260902031124 92 196 2.0 6.0 0.00 0.00 0.00 50 1014.2
20260902030625 92 171 2.0 6.0 0.00 0.00 0.00 50 1014.2
20260902030124 92 184 2.0 6.0 0.00 0.00 0.00 50 1014.1
20260902025625 92 136 2.0 7.0 0.00 0.00 0.00 49 1014.0
20260902025125 92 147 1.0 7.0 0.00 0.00 0.00 49 1014.0
20260902024720 92 136 1.0 5.0 0.00 0.00 0.00 49 1013.8
20260902024658 92 163 1.0 7.0 0.00 0.00 0.00 49 1013.9
20260902023622 92 128 1.0 6.0 0.00 0.00 0.00 49 1013.8
20260902023123 92 133 1.0 6.0 0.00 0.00 0.00 49 1013.8
20260902022912 92 200 1.0 5.0 0.00 0.00 0.00 49 1013.6
20260902022122 92 22 0.0 4.0 0.00 0.00 0.00 49 1013.6
20260902021625 92 111 0.0 2.0 0.00 0.00 0.00 48 1013.5
20260902021122 92 111 0.0 2.0 0.00 0.00 0.00 48 1013.4
20260902020620 92 159 1.0 2.0 0.00 0.00 0.00 47 1013.4
20260902020114 92 151 1.0 2.0 0.00 0.00 0.00 47 1013.3
20260902015614 93 172 1.0 2.0 0.00 0.00 0.00 47 1013.2
20260902015112 93 110 1.0 3.0 0.00 0.00 0.00 47 1013.1
20260902014612 93 108 1.0 3.0 0.00 0.00 0.00 47 1013.1
20260902014111 93 137 1.0 3.0 0.00 0.00 0.00 46 1013.0